Home > Weather > Shizuoka > Past weeks

Flag for Japan Past Weather in Shizuoka, Japan — Yesterday and Last 2 Weeks

Now
69 °F

Mild.


Feels Like: 69 °F
Forecast: 67 / 78 °F
Wind: 3 mph from East

Location: Omaezaki

Current Time: Jun 28, 2016 at 4:58:48 PM

Latest Report: Jun 28, 2016 at 4:00 PM


Visibility: 13 mi

Pressure: 29.84 "Hg

Humidity: 96%

Dew Point: 68 °F

Location of ShizuokaLocation

Past Weather in Shizuoka — Graph

°F

Shizuoka Temperature Yesterday

Maximum temperature yesterday: 78 °F (at 12:00 PM)
Minimum temperature yesterday: 68 °F (at 4:00 AM)
Average temperature yesterday: 72 °F

High & Low Weather Summary for the Past Weeks

 TemperatureHumidityPressure
High82 °F (Jun 18, 3:00 PM)100% (Jun 23, 5:00 AM)30.01 "Hg (Jun 23, 5:00 AM)
Low64 °F (Jun 28, 4:00 AM)50% (Jun 18, 4:00 PM)29.41 "Hg (Jun 13, 3:00 PM)
Average73 °F87%29.75 "Hg
* Reported Jun 13 3:00 PM — Jun 28 3:00 PM, Shizuoka, Weather by CustomWeather, © 2016

Note: Actual official high and low records may vary slightly from our data, if they occured in-between our weather recording intervals... More about our weather records

Advertising

Shizuoka Weather History for the Previous 24 Hours

Scroll right to see more
 ConditionsComfort  
Time TempWeatherWind HumidityBarometerVisibility
3:00 PM
Tue, Jun 28
69 °FMild.6 mph97%29.83 "Hg12 mi
2:00 PM68 °FLight rain. Cloudy.9 mph98%29.83 "Hg6 mi
1:00 PM68 °FLight rain. Cloudy.9 mph100%29.83 "Hg6 mi
12:00 PM67 °FLight rain. Cloudy.10 mph99%29.84 "Hg3 mi
11:00 AM66 °FRain. Cloudy.10 mph99%29.85 "Hg2 mi
10:00 AM66 °FRain. Cloudy.9 mph99%29.85 "Hg3 mi
9:00 AM66 °FRain. Cloudy.12 mph98%29.84 "Hg2 mi
8:00 AM65 °FLight rain. Cloudy.12 mph98%29.84 "Hg3 mi
7:00 AM65 °FLight rain. Cloudy.13 mph97%29.84 "Hg4 mi
6:00 AM65 °FRain. Cloudy.15 mph98%29.84 "Hg1 mi
5:00 AM65 °FRain. Cloudy.12 mph97%29.85 "Hg2 mi
4:00 AM64 °FRain. Cloudy.17 mph95%29.84 "Hg3 mi
3:00 AM65 °FLight rain. Overcast.14 mph91%29.86 "Hg6 mi
2:00 AM65 °FRain. Overcast.10 mph88%29.89 "Hg3 mi
1:00 AM69 °FLight rain. Overcast.7 mph93%29.92 "Hg7 mi
12:00 AM71 °FLight rain. Overcast.3 mph97%29.95 "Hg2 mi
11:00 PM
Mon, Jun 27
72 °FFog.2 mph96%29.98 "Hg2 mi
10:00 PM72 °FFog.1 mph96%29.98 "Hg3 mi
9:00 PM72 °FFog.6 mph95%29.97 "Hg4 mi
8:00 PM72 °FFog.6 mph95%29.97 "Hg4 mi
7:00 PM72 °FFog.6 mph94%29.94 "Hg4 mi
6:00 PM72 °FMild.7 mph89%29.92 "Hg7 mi
5:00 PM74 °FMild.6 mph85%29.93 "Hg9 mi
4:00 PM74 °FMild.8 mph85%29.95 "Hg8 mi
Weather by CustomWeather, © 2016

See weather overviewHow to use our weather pages